W9WKM Weather Reports


time (UTC)temp
C
wind
direction
speed
KPH
gust
KPH
rain 1hr
cm
rain 24hr
cm
rain mn
cm
humidity
%
barometer
mb
20260906123017 -17 0.0 0.0 0.00 0.00 0.00 1015.8
20260906121505 -17 0.0 0.0 0.00 0.00 0.00 1015.3
20260906114555 -17 0.0 0.0 0.00 0.00 0.00 1015.0
20260906113051 -17 0.0 0.0 0.00 0.00 0.00 1014.7
20260906111550 -17 0.0 0.0 0.00 0.00 0.00 1014.5
20260906110051 -17 0.0 0.0 0.00 0.00 0.00 1014.6
20260906104537 -17 0.0 0.0 0.00 0.00 0.00 1014.4
20260906103038 -17 0.0 0.0 0.00 0.00 0.00 1014.2
20260906101531 -17 0.0 0.0 0.00 0.00 0.00 1014.3
20260906100029 -17 0.0 0.0 0.00 0.00 0.00 1014.4
20260906094520 -17 0.0 0.0 0.00 0.00 0.00 1014.2
20260906093032 -17 0.0 0.0 0.00 0.00 0.00 1014.3
20260906091512 20 65 0.0 1.6 0.00 0.00 0.00 1 1014.2
20260906090022 20 67 0.0 1.6 0.00 0.00 0.00 1 1014.2
20260906084505 20 58 0.0 1.6 0.00 0.00 0.00 1 1014.1
20260906083058 21 58 0.0 1.6 0.00 0.00 0.00 1 1014.0
20260906081557 21 58 0.0 1.6 0.00 0.00 0.00 1 1014.1
20260906080057 21 58 0.0 3.2 0.00 0.00 0.00 1 1014.3
20260906074551 21 47 0.0 0.0 0.00 0.00 0.00 1 1014.4
20260906073056 21 49 0.0 0.0 0.00 0.00 0.00 1 1014.3
20260906071536 21 49 0.0 0.0 0.00 0.00 0.00 1 1014.4
20260906070036 21 49 0.0 0.0 0.00 0.00 0.00 1 1014.4
20260906064531 21 49 0.0 0.0 0.00 0.00 0.00 1 1014.3
20260906063039 21 46 0.0 3.2 0.00 0.00 0.00 9 1014.4
20260906061521 21 65 0.0 1.6 0.00 0.00 0.00 14 1014.3
20260906060020 22 72 0.0 4.8 0.00 0.00 0.00 17 1014.2
20260906054517 22 63 0.0 3.2 0.00 0.00 0.00 20 1014.2
20260906053017 22 56 0.0 6.4 0.00 0.00 0.00 22 1014.0
20260906051520 22 49 0.0 1.6 0.00 0.00 0.00 23 1013.9
20260906050011 22 62 0.0 3.2 0.00 0.00 0.00 24 1013.9
20260906044507 22 38 0.0 4.8 0.00 0.00 0.00 26 1013.7
20260906043002 22 53 0.0 3.2 0.00 0.00 0.00 30 1013.5
20260906041603 22 40 0.0 1.6 0.00 0.00 0.00 30 1013.3
20260906040054 22 38 0.0 1.6 0.00 0.00 0.00 37 1013.0
20260906034607 22 51 0.0 3.2 0.00 0.00 0.00 43 1013.0
20260906033045 22 60 0.0 6.4 0.00 0.00 0.00 47 1012.8
20260906031546 22 82 0.0 4.8 0.00 0.00 0.00 48 1012.9
20260906030035 22 62 0.0 3.2 0.00 0.00 0.00 48 1012.8
20260906024531 22 100 0.0 9.7 0.00 0.00 0.00 48 1012.9
20260906023026 22 93 1.6 9.7 0.00 0.00 0.00 44 1012.9
20260906021522 22 51 0.0 16.1 0.00 0.00 0.00 43 1012.8
20260906020020 22 96 0.0 6.4 0.00 0.00 0.00 44 1012.7
20260906014517 22 70 1.6 17.7 0.00 0.00 0.00 47 1012.9
20260906013012 22 130 0.0 16.1 0.00 0.00 0.00 39 1012.8
20260906011504 22 74 0.0 6.4 0.00 0.00 0.00 44 1012.8
20260906010059 22 78 0.0 8.0 0.00 0.00 0.00 46 1012.8
20260906004555 22 58 0.0 8.0 0.00 0.00 0.00 39 1012.6
20260906003050 22 71 1.6 14.5 0.00 0.00 0.00 39 1012.4
20260906001547 22 67 1.6 17.7 0.00 0.00 0.00 41 1012.2
20260906000046 23 55 0.0 6.4 0.00 0.00 0.00 49 1011.9
20260905234537 24 56 0.0 9.7 0.00 0.00 0.00 57 1011.9
20260905233040 25 64 3.2 9.7 0.00 0.00 0.00 63 1011.7
20260905231530 25 77 1.6 8.0 0.00 0.00 0.00 68 1011.6
20260905230025 26 103 1.6 16.1 0.00 0.00 0.00 71 1011.4
20260905224518 26 49 1.6 11.3 0.00 0.00 0.00 72 1011.1
20260905223014 27 34 0.0 11.3 0.00 0.00 0.00 73 1011.0
20260905221509 27 65 3.2 11.3 0.00 0.00 0.00 71 1010.8
20260905220005 27 53 1.6 9.7 0.00 0.00 0.00 72 1010.9
20260905214605 27 65 0.0 9.7 0.00 0.00 0.00 72 1011.1
20260905213056 28 56 1.6 4.8 0.00 0.00 0.00 71 1010.9
20260905211552 27 63 0.0 6.4 0.00 0.00 0.00 72 1011.0
20260905210057 27 75 0.0 8.0 0.00 0.00 0.00 72 1011.2
20260905204552 27 54 0.0 8.0 0.00 0.00 0.00 70 1011.2
20260905203057 26 46 0.0 8.0 0.00 0.00 0.00 67 1011.3
20260905201536 26 54 1.6 11.3 0.00 0.00 0.00 67 1011.4
20260905200031 26 72 3.2 8.0 0.00 0.00 0.00 71 1011.5
20260905194526 27 75 1.6 11.3 0.00 0.00 0.00 70 1011.2
20260905193022 27 13 1.6 6.4 0.00 0.00 0.00 71 1011.3
20260905191521 27 70 3.2 16.1 0.00 0.00 0.00 72 1011.5
20260905190018 27 72 0.0 9.7 0.00 0.00 0.00 71 1011.4
20260905184512 28 72 3.2 11.3 0.00 0.00 0.00 72 1011.3
20260905183005 27 60 3.2 9.7 0.00 0.00 0.00 72 1011.6
20260905181600 27 70 3.2 9.7 0.00 0.00 0.00 72 1011.4
20260905180056 28 77 0.0 12.9 0.00 0.00 0.00 72 1011.3
20260905174552 28 56 3.2 9.7 0.00 0.00 0.00 72 1011.3
20260905173045 27 65 3.2 11.3 0.00 0.00 0.00 71 1011.3
20260905171555 28 88 0.0 8.0 0.00 0.00 0.00 72 1011.3
20260905170037 28 56 4.8 8.0 0.00 0.00 0.00 71 1011.3
20260905164537 28 62 0.0 6.4 0.00 0.00 0.00 71 1011.5
20260905163032 27 77 3.2 9.7 0.00 0.00 0.00 71 1011.6
20260905161523 27 56 3.2 12.9 0.00 0.00 0.00 68 1011.5
20260905160018 27 53 3.2 8.0 0.00 0.00 0.00 64 1011.5
20260905154513 26 73 1.6 8.0 0.00 0.00 0.00 61 1011.4
20260905153010 26 65 0.0 8.0 0.00 0.00 0.00 56 1011.5
20260905151504 26 65 1.6 8.0 0.00 0.00 0.00 58 1011.2
20260905150107 26 34 0.0 6.4 0.00 0.00 0.00 49 1011.2
20260905144556 26 44 0.0 8.0 0.00 0.00 0.00 45 1011.1
20260905143101 25 49 0.0 6.4 0.00 0.00 0.00 21 1011.1
20260905141547 23 60 1.6 8.0 0.00 0.00 0.00 6 1011.1
20260905140043 23 65 1.6 6.4 0.00 0.00 0.00 4 1010.8
20260905134537 24 67 0.0 11.3 0.00 0.00 0.00 3 1010.8
20260905133032 24 59 0.0 3.2 0.00 0.00 0.00 1 1010.9
20260905131536 -17 0.0 0.0 0.00 0.00 0.00 1011.1
20260905130026 -17 0.0 0.0 0.00 0.00 0.00 1010.4
20260905124520 -17 0.0 0.0 0.00 0.00 0.00 1010.3